This is the latest recevied weather packets stored in our database for station/object EA1GGY-1. If no packets are shown the sender has not sent any weather packets the latest 10 day(s).
| Time | Temp. | Humidity | Pressure | Rain* | Wind** | Luminosity | Snow |
|---|---|---|---|---|---|---|---|
| 1787832923 | 12.22° C | 76% | 1007.1 hPa | - | - | - | - |
| 1787832322 | 12.78° C | 72% | 1006.9 hPa | - | - | - | - |
| 1787831721 | 12.78° C | 73% | 1006.9 hPa | - | - | - | - |
| 1787831121 | 12.78° C | 71% | 1006.6 hPa | - | - | - | - |
| 1787830520 | 13.33° C | 71% | 1006.4 hPa | - | - | - | - |
| 1787829919 | 13.33° C | 72% | 1006.6 hPa | - | - | - | - |
| 1787829318 | 12.78° C | 74% | 1006.6 hPa | - | - | - | - |
| 1787828718 | 12.78° C | 73% | 1006.8 hPa | - | - | - | - |
| 1787828117 | 12.78° C | 69% | 1007.3 hPa | - | - | - | - |
| 1787827516 | 12.78° C | 71% | 1007 hPa | - | - | - | - |
| 1787826915 | 13.33° C | 70% | 1007.2 hPa | - | - | - | - |
| 1787826314 | 13.33° C | 71% | 1007.1 hPa | - | - | - | - |
| 1787825713 | 12.22° C | 79% | 1007.2 hPa | - | - | - | - |
| 1787825113 | 12.78° C | 79% | 1007.1 hPa | - | - | - | - |
| 1787824512 | 12.22° C | 79% | 1007 hPa | - | - | - | - |
| 1787823911 | 11.67° C | 80% | 1007.1 hPa | - | - | - | - |
| 1787823310 | 12.22° C | 79% | 1007.3 hPa | - | - | - | - |
| 1787822709 | 11.67° C | 82% | 1007.3 hPa | - | - | - | - |
| 1787822109 | 11.67° C | 81% | 1006.9 hPa | - | - | - | - |
| 1787821508 | 11.67° C | 81% | 1006.7 hPa | - | - | - | - |
| 1787820907 | 11.67° C | 81% | 1006.7 hPa | - | - | - | - |
| 1787820306 | 12.22° C | 79% | 1006.8 hPa | - | - | - | - |
| 1787819706 | 11.67° C | 82% | 1006.8 hPa | - | - | - | - |
| 1787819105 | 11.67° C | 82% | 1006.7 hPa | - | - | - | - |
| 1787818504 | 12.78° C | 79% | 1006.7 hPa | - | - | - | - |
* Rain since midnight (hover to see other rain measurements)
** Current wind speed in m/s (hover to see current wind gust speed)